Stündliche Wetter Cenotillo

Heute, 21 Januar, Donnerstag

Zeit Temperatur Niederschläge Wind Luftdruck Luftfeuchtigkeit
00:00 +20°C° 0 mm 1 m/S 763 mmHg 97%
01:00 +20°C° 0 mm 1 m/S 763 mmHg 97%
02:00 +19°C° 0 mm 1 m/S 762 mmHg 97%
03:00 +19°C° 0 mm 1 m/S 762 mmHg 97%
04:00 +19°C° 0 mm 1 m/S 762 mmHg 97%
05:00 +19°C° 0 mm 1 m/S 762 mmHg 96%
06:00 +19°C° 0 mm 1 m/S 762 mmHg 96%
07:00 +21°C° 0 mm 1 m/S 763 mmHg 90%
08:00 +23°C° 0 mm 2 m/S 763 mmHg 83%
09:00 +25°C° 0 mm 2 m/S 763 mmHg 77%
10:00 +27°C° 0 mm 2 m/S 762 mmHg 70%
11:00 +28°C° 0 mm 2 m/S 762 mmHg 63%
12:00 +30°C° 0 mm 1 m/S 761 mmHg 56%
13:00 +30°C° 0 mm 2 m/S 761 mmHg 54%
14:00 +31°C° 0 mm 2 m/S 760 mmHg 51%
15:00 +31°C° 0 mm 2 m/S 759 mmHg 49%
16:00 +29°C° 0 mm 2 m/S 759 mmHg 59%
17:00 +27°C° 0 mm 2 m/S 759 mmHg 69%
18:00 +24°C° 0 mm 3 m/S 759 mmHg 80%
19:00 +22°C° 0 mm 3 m/S 759 mmHg 83%
20:00 +23°C° 0 mm 2 m/S 760 mmHg 86%
21:00 +21°C° 0 mm 2 m/S 760 mmHg 90%
22:00 +20°C° 0 mm 2 m/S 760 mmHg 92%
23:00 +20°C° 0 mm 2 m/S 759 mmHg 94%

Morgen, 22 Januar, Freitag

Zeit Temperatur Niederschläge Wind Luftdruck Luftfeuchtigkeit
00:00 +19°C° 0 mm 2 m/S 759 mmHg 97%
01:00 +20°C° 0 mm 1 m/S 759 mmHg 97%
02:00 +20°C° 0 mm 1 m/S 759 mmHg 97%
03:00 +20°C° 0 mm 1 m/S 758 mmHg 97%
04:00 +20°C° 0 mm 1 m/S 759 mmHg 97%
05:00 +20°C° 0 mm 1 m/S 759 mmHg 97%
06:00 +20°C° 0 mm 1 m/S 759 mmHg 97%
07:00 +22°C° 0 mm 1 m/S 759 mmHg 90%
08:00 +24°C° 0 mm 1 m/S 760 mmHg 82%
09:00 +26°C° 0 mm 1 m/S 760 mmHg 75%
10:00 +28°C° 0 mm 1 m/S 760 mmHg 68%
11:00 +30°C° 0 mm 2 m/S 759 mmHg 61%
12:00 +32°C° 0 mm 2 m/S 759 mmHg 54%
13:00 +32°C° 0 mm 2 m/S 758 mmHg 51%
14:00 +34°C° 0 mm 2 m/S 758 mmHg 48%
15:00 +33°C° 0 mm 1 m/S 757 mmHg 45%
16:00 +31°C° 0 mm 2 m/S 757 mmHg 53%
17:00 +29°C° 0 mm 2 m/S 757 mmHg 61%
18:00 +27°C° 0 mm 2 m/S 758 mmHg 70%
19:00 +26°C° 0 mm 2 m/S 758 mmHg 77%
20:00 +25°C° 0 mm 2 m/S 758 mmHg 84%
21:00 +23°C° 0 mm 2 m/S 759 mmHg 91%
22:00 +23°C° 0 mm 2 m/S 759 mmHg 93%
23:00 +23°C° 0 mm 1 m/S 759 mmHg 95%

übermorgen, 23 Januar, Samstag

Zeit Temperatur Niederschläge Wind Luftdruck Luftfeuchtigkeit
00:00 +22°C° 0 mm 1 m/S 759 mmHg 98%
01:00 +22°C° 0 mm 1 m/S 759 mmHg 98%
02:00 +22°C° 0 mm 1 m/S 759 mmHg 98%
03:00 +22°C° 0 mm 1 m/S 759 mmHg 98%
04:00 +22°C° 0 mm 1 m/S 759 mmHg 98%
05:00 +22°C° 0 mm 1 m/S 759 mmHg 98%
06:00 +22°C° 0 mm 1 m/S 760 mmHg 98%
07:00 +23°C° 0 mm 2 m/S 760 mmHg 92%
08:00 +25°C° 0 mm 2 m/S 760 mmHg 86%
09:00 +27°C° 0 mm 2 m/S 761 mmHg 81%
10:00 +29°C° 0 mm 2 m/S 760 mmHg 73%
11:00 +30°C° 0 mm 2 m/S 760 mmHg 64%
12:00 +32°C° 0 mm 2 m/S 759 mmHg 56%
13:00 +32°C° 0.1 mm 2 m/S 759 mmHg 56%
14:00 +32°C° 0.1 mm 2 m/S 758 mmHg 57%
15:00 +32°C° 0.1 mm 2 m/S 758 mmHg 57%
16:00 +30°C° 0.2 mm 2 m/S 758 mmHg 66%
17:00 +28°C° 0.2 mm 2 m/S 758 mmHg 76%
18:00 +26°C° 0.2 mm 2 m/S 758 mmHg 85%
19:00 +25°C° 0 mm 2 m/S 759 mmHg 88%
20:00 +25°C° 0 mm 2 m/S 759 mmHg 91%
21:00 +24°C° 0 mm 2 m/S 760 mmHg 94%
22:00 +24°C° 0 mm 2 m/S 759 mmHg 95%
23:00 +24°C° 0 mm 2 m/S 759 mmHg 97%

24 Januar, Sonntag

Zeit Temperatur Niederschläge Wind Luftdruck Luftfeuchtigkeit
00:00 +23°C° 0 mm 2 m/S 759 mmHg 98%
01:00 +23°C° 0 mm 2 m/S 759 mmHg 98%
02:00 +23°C° 0 mm 2 m/S 759 mmHg 98%
03:00 +23°C° 0 mm 2 m/S 759 mmHg 98%
04:00 +21°C° 0 mm 2 m/S 759 mmHg 98%
05:00 +21°C° 0 mm 2 m/S 759 mmHg 98%
06:00 +21°C° 0 mm 2 m/S 759 mmHg 98%
07:00 +23°C° 0 mm 2 m/S 759 mmHg 93%
08:00 +25°C° 0 mm 3 m/S 760 mmHg 88%
09:00 +26°C° 0 mm 3 m/S 760 mmHg 83%
10:00 +28°C° 0 mm 3 m/S 760 mmHg 76%
11:00 +29°C° 0 mm 3 m/S 759 mmHg 68%
12:00 +31°C° 0 mm 3 m/S 759 mmHg 60%
13:00 +31°C° 0 mm 3 m/S 758 mmHg 59%
14:00 +31°C° 0 mm 3 m/S 757 mmHg 58%
15:00 +31°C° 0 mm 3 m/S 756 mmHg 57%
16:00 +30°C° 0 mm 3 m/S 757 mmHg 63%
17:00 +28°C° 0 mm 3 m/S 757 mmHg 69%
18:00 +27°C° 0 mm 2 m/S 757 mmHg 75%
19:00 +26°C° 0 mm 2 m/S 757 mmHg 80%
20:00 +25°C° 0 mm 2 m/S 758 mmHg 84%
21:00 +25°C° 0 mm 2 m/S 758 mmHg 89%
22:00 +24°C° 0 mm 2 m/S 758 mmHg 91%
23:00 +24°C° 0 mm 2 m/S 757 mmHg 94%

25 Januar, Montag

Zeit Temperatur Niederschläge Wind Luftdruck Luftfeuchtigkeit
00:00 +24°C° 0 mm 2 m/S 757 mmHg 96%
01:00 +23°C° 0 mm 2 m/S 757 mmHg 97%
02:00 +23°C° 0 mm 2 m/S 757 mmHg 97%
03:00 +23°C° 0 mm 2 m/S 757 mmHg 98%
04:00 +23°C° 0 mm 2 m/S 757 mmHg 98%
05:00 +23°C° 0 mm 2 m/S 757 mmHg 98%
06:00 +23°C° 0 mm 2 m/S 757 mmHg 98%
07:00 +25°C° 0 mm 3 m/S 757 mmHg 91%
08:00 +26°C° 0 mm 3 m/S 757 mmHg 84%
09:00 +28°C° 0 mm 4 m/S 758 mmHg 77%
10:00 +29°C° 0 mm 4 m/S 757 mmHg 71%
11:00 +32°C° 0 mm 4 m/S 757 mmHg 66%
12:00 +33°C° 0 mm 4 m/S 756 mmHg 60%
13:00 +33°C° 0 mm 4 m/S 756 mmHg 58%
14:00 +34°C° 0 mm 4 m/S 755 mmHg 56%
15:00 +34°C° 0 mm 4 m/S 755 mmHg 54%
16:00 +32°C° 0 mm 4 m/S 755 mmHg 58%
17:00 +30°C° 0 mm 3 m/S 755 mmHg 62%
18:00 +28°C° 0 mm 3 m/S 755 mmHg 67%
19:00 +27°C° 0 mm 3 m/S 756 mmHg 74%
20:00 +26°C° 0 mm 3 m/S 756 mmHg 81%
21:00 +25°C° 0 mm 3 m/S 757 mmHg 88%
22:00 +25°C° 0 mm 2 m/S 757 mmHg 91%
23:00 +24°C° 0 mm 2 m/S 757 mmHg 93%

26 Januar, Dienstag

Zeit Temperatur Niederschläge Wind Luftdruck Luftfeuchtigkeit
00:00 +24°C° 0 mm 2 m/S 756 mmHg 96%
01:00 +24°C° 0 mm 2 m/S 757 mmHg 97%
02:00 +24°C° 0 mm 2 m/S 757 mmHg 97%
03:00 +23°C° 0 mm 2 m/S 757 mmHg 98%
04:00 +23°C° 0 mm 2 m/S 757 mmHg 98%
05:00 +23°C° 0 mm 1 m/S 757 mmHg 98%
06:00 +23°C° 0 mm 1 m/S 757 mmHg 98%
07:00 +25°C° 0 mm 2 m/S 758 mmHg 89%
08:00 +27°C° 0 mm 3 m/S 758 mmHg 81%
09:00 +29°C° 0 mm 4 m/S 759 mmHg 73%
10:00 +30°C° 0 mm 4 m/S 758 mmHg 67%
11:00 +32°C° 0 mm 4 m/S 758 mmHg 60%
12:00 +34°C° 0 mm 4 m/S 757 mmHg 54%
13:00 +34°C° 0 mm 4 m/S 757 mmHg 52%
14:00 +34°C° 0 mm 4 m/S 756 mmHg 51%
15:00 +35°C° 0 mm 4 m/S 756 mmHg 49%
16:00 +33°C° 0 mm 4 m/S 756 mmHg 55%
17:00 +30°C° 0 mm 3 m/S 756 mmHg 61%
18:00 +28°C° 0 mm 3 m/S 757 mmHg 67%
19:00 +27°C° 0 mm 3 m/S 757 mmHg 74%
20:00 +25°C° 0 mm 3 m/S 758 mmHg 81%
21:00 +24°C° 0 mm 2 m/S 758 mmHg 88%
22:00 +24°C° 0 mm 2 m/S 758 mmHg 91%
23:00 +23°C° 0 mm 2 m/S 758 mmHg 94%
Mehr zeigen

Wir brauchen deine Erlaubnis

Meteoprog und unser Service Anbieter werden persönliche Daten aufbewahren, so wie Cookies, Geräte Bezeichnung oder ähnliche Technologien von deinem Gerät und Prozess, so wie Persönliche Daten Inhalte und Werbungen, genauso wie social Media und den Verkehr zu analysieren.

  • Aufbewahrung und/oder Zugang zu deiner Geräte Informationen.

    Cookies, Geräte Bezeichnung oder andere Informationen, können aufbewahrt oder Zugang zu deinem Gerät erhalten, für den Grund, der oben angegeben wird.

  • Personalisierte Werbung und Inhalte, Messungen, Einblick in das Publikum und Produkt Entwicklung.

    Werbungen und Inhalte können personalisiert werden, basierend auf ein Profil. Mehr Daten können besser personalisierte Werbungen und Inhalte hinzufügen. Werbung und Inhalte können gezeigt und gemessen werden. Einblicke über das Publikum, welche die Werbung gesehen haben und den Inhalt, können abgeleitet werden. So wie Daten können genutzt werden, um es zu verbessern oder die Benutzer Erfahrung zu verbessern das System und die Software.

Wenn du “Ich stimme zu” klickst, erlaubst du uns, die Cookies zu benutzen die Geräte Bezeichnung, den Web oder ähnliche Technologien zu benutzen. Deine Settings, können in deinem Gerät bei deinem Browser geändert werden.

Für den bestimmten Zweck, berechtigten Interessen beruhen darauf, mehr als auf den Inhalt. Du kannst mehr darüber in unseren Privaten und Cookie Politik lesen.